Regional Weather Roundup
Issued by NWS

Home | Current Version | Previous Version | Text Only | Print | Product List | Glossary Off
Versions: 1 2 3 4 5 6 7 8 9 10 11 12 13 14 15 16 17 18 19 20 21 22 23 24 25 26 27 28 29 30 31 32 33 34 35 36 37 38 39 40 41 42 43 44 45 46 47 48 49 50

000
ASUS43 KIND 201659
RWRIN

WEATHER ROUNDUP FOR INDIANA
NATIONAL WEATHER SERVICE INDIANAPOLIS IN
1200 PM EST TUE FEB 20 2018

NOTE: "FAIR" INDICATES FEW OR NO CLOUDS BELOW 12,000 FEET WITH NO
SIGNIFICANT WEATHER AND/OR OBSTRUCTIONS TO VISIBILITY.

* - STATION DOES NOT REPORT WEATHER SUCH AS PRECIPITATION OR FOG.

+ - STATION NOT QUALITY CONTROLLED BY THE NATIONAL WEATHER SERVICE.
    USE DATA WITH CAUTION...ESPECIALLY DEWPOINT AND RELATIVE
    HUMIDITY OBSERVATIONS.

INZ001>003-010>013-019-020-201800-
NORTHWEST INDIANA

CITY           SKY/WX    TMP DP  RH WIND       PRES   REMARKS
GARY /AIRPORT/ CLOUDY    66  61  82 S14G30    29.89S
MONTICELLO +   HVY RAIN  62  60  94 S17G26    29.97S
RENSSELAER +   RAIN      63  55  77 S21G30    29.95R

$$

LMZ046-743>745-201800-
SOUTHERN LAKE MICHIGAN

STATION/POSITION TIME  TEMP    WIND        PRES    WAVE
                       AIR SEA DIR/SP/G            HT
                 (UTC) (F)     (DEG/KT/KT) (MB)    (FT)
BURNS HARBOR     1640   62     200/ 20/ 29 1012.5F
MICHIGAN CITY    1630   63     180/ 21/ 23   N/A

$$

INZ004-005-014>016-021>024-201800-
NORTH CENTRAL INDIANA

CITY           SKY/WX    TMP DP  RH WIND       PRES   REMARKS
ELKHART        CLOUDY    63  59  88 SW12      29.95S
GOSHEN         HVY RAIN  62  60  93 S23G29    29.96S FOG
SOUTH BEND     CLOUDY    62  59  90 S20G26    29.94F
WARSAW +       HVY RAIN  61  61 100 SW9G17    29.99S

$$

INZ006>009-017-018-025>027-201800-
NORTHEAST INDIANA

CITY           SKY/WX    TMP DP  RH WIND       PRES   REMARKS
AUBURN +       LGT RAIN  61  59  94 S13G23    30.02S
FORT WAYNE     LGT RAIN  63  60  90 S13       30.03S
KENDALLVILLE + RAIN      60  60 100 SW17G24   30.00S

$$

INZ028-029-035-036-043>045-051>053-201800-
WEST CENTRAL INDIANA

CITY           SKY/WX    TMP DP  RH WIND       PRES   REMARKS
GREENCASTLE +  PTSUNNY   70  54  56 SW17G26   30.03F
LAFAYETTE      LGT RAIN  63  61  93 S13G18    29.98F
TERRE HAUTE    PTSUNNY   71  58  63 SW22G39   30.03R

$$

INZ030>032-037>040-046>048-054>057-064-065-201800-
CENTRAL INDIANA

CITY           SKY/WX    TMP DP  RH WIND       PRES   REMARKS
GREENWOOD *+   PTSUNNY   71 -26   2 SW24G30   30.07R
INDIANAPOLIS   PTSUNNY   70  56  61 S28G37    30.04S
-EAGLE CREEK   PTSUNNY   70  55  59 S17G25    30.03S
KOKOMO +       LGT RAIN  63  61  93 SW16      30.03S
MT COMFORT *+  PTSUNNY   70  61  73 SW17G26   30.06R
SHELBYVILLE    PTSUNNY   73  54  51 SW32G43   30.06S

$$

INZ033-034-041-042-049-050-058-059-201800-
EAST CENTRAL INDIANA

CITY           SKY/WX    TMP DP  RH WIND       PRES   REMARKS
MUNCIE         LGT RAIN  68  59  73 SW16G22   30.05R
RICHMOND +     FAIR      68  59  73 SW24G32   30.12R

$$

INZ060-061-067>069-081>083-085>088-201800-
SOUTHWEST INDIANA

CITY           SKY/WX    TMP DP  RH WIND       PRES   REMARKS
EVANSVILLE     FAIR      73  56  54 S20G30    30.10S
HUNTINGBURG +  FAIR      71  56  58 S23G29    30.12R

$$

INZ062-063-066-070>080-084-089>092-201800-
SOUTH CENTRAL AND SOUTHEAST INDIANA

CITY           SKY/WX    TMP DP  RH WIND       PRES   REMARKS
BLOOMINGTON    PTSUNNY   72  55  55 SW21G31   30.07S
FRENCH LICK *+ FAIR      70  46  43 S14G29    30.12R
SEYMOUR +      FAIR      75  54  46 SW20G26   30.11S

$$





USA.gov is the U.S. government's official web portal to all federal, state and local government web resources and services.